Home   Weather   Downey   Past weeks
Flag for USA

Past Weather in Downey, California, USA — Yesterday and Last 2 Weeks

Now
73 °F

Sunny.


Feels Like: 77 °F
Forecast: 80 / 56 °F
Wind: 5 mph from Southwest

Location: Long Beach Airport

Current Time: Oct 19, 2019 at 1:03:34 pm

Latest Report: Oct 19, 2019 at 11:53 am


Visibility: 10 mi

Pressure: 29.94 "Hg

Humidity: 51%

Dew Point: 54 °F

Location of DowneyLocation

Past Weather in Downey — Graph

°F

Downey Temperature Yesterday

Maximum temperature yesterday: 80 °F (at 2:53 pm)
Minimum temperature yesterday: 61 °F (at 6:02 am)
Average temperature yesterday: 69 °F

High & Low Weather Summary for the Past Weeks

 TemperatureHumidityPressure
High91 °F (Oct 16, 11:53 am)93% (Oct 8, 7:55 am)30.05 "Hg (Oct 8, 7:55 am)
Low58 °F (Oct 6, 5:53 am)2% (Oct 11, 1:53 pm)29.79 "Hg (Oct 16, 5:53 pm)
Average69 °F58%29.90 "Hg
* Reported Oct 4 11:53 am — Oct 19 11:53 am, Downey. Weather by CustomWeather, © 2019

Note: Actual official high and low records may vary slightly from our data, if they occured in-between our weather recording intervals... More about our weather records

Advertising

Downey Weather History for the Previous 24 Hours

Scroll right to see more
 ConditionsComfort  
Time TempWeatherWind HumidityBarometerVisibility
11:53 am
Sat, Oct 19
73 °FSunny.5 mph51%29.94 "Hg10 mi
10:53 am72 °FSunny.No wind55%29.95 "Hg10 mi
9:53 am69 °FSunny.No wind61%29.96 "Hg10 mi
8:53 am64 °FSunny.No wind58%29.93 "Hg10 mi
7:53 am60 °FSunny.No wind65%29.92 "Hg10 mi
6:53 am59 °FClear.No wind64%29.90 "Hg10 mi
5:53 am58 °FClear.3 mph75%29.89 "Hg10 mi
4:53 am59 °FClear.No wind72%29.88 "Hg10 mi
3:53 am60 °FClear.No wind78%29.89 "Hg10 mi
2:53 am60 °FClear.No wind80%29.89 "Hg10 mi
1:53 am61 °FClear.3 mph81%29.89 "Hg10 mi
12:53 am62 °FClear.No wind78%29.88 "Hg10 mi
11:53 pm
Fri, Oct 18
64 °FClear.3 mph75%29.88 "Hg10 mi
10:53 pm65 °FClear.No wind66%29.89 "Hg10 mi
9:53 pm68 °FClear.3 mph61%29.88 "Hg10 mi
8:53 pm68 °FClear.3 mph57%29.88 "Hg10 mi
7:53 pm71 °FClear.5 mph39%29.88 "Hg10 mi
6:53 pm72 °FClear.5 mph31%29.87 "Hg10 mi
5:53 pm74 °FSunny.7 mph29%29.87 "Hg10 mi
4:53 pm76 °FSunny.9 mph26%29.87 "Hg10 mi
3:53 pm77 °FSunny.16 mph30%29.87 "Hg10 mi
2:53 pm80 °FSunny.13 mph32%29.88 "Hg10 mi
1:53 pm76 °FSunny.7 mph48%29.88 "Hg10 mi
Weather by CustomWeather, © 2019

See weather overview